EZY365G EGCC-EGAC

Flight info

Callsign EZY365G
Flight time 0h 35m
Altitude 24000
Route EKLAD Y53 WAL M146 ERDUV Z198 MASOP M148 MAGEE
Aircraft A320/M-SDE2E3FGHIJ1RWXYZ/LB1

Departure

Time 2026-04-18 11:07
Airport Manchester Airport (EGCC)

Arrival

Time 2026-04-18 11:42
Airport George Best Belfast City Airport (EGAC)
Time Latitude Longitude Altitude Speed Heading
2026-04-18 10:41 53.36651 -2.28545 255 ft 0 kts 135°
2026-04-18 10:42 53.36651 -2.28546 255 ft 0 kts 135°
2026-04-18 10:57 53.36660 -2.28561 255 ft 4 kts 135°
2026-04-18 10:57 53.36679 -2.28593 255 ft 4 kts 135°
2026-04-18 10:57 53.36698 -2.28624 255 ft 4 kts 135°
2026-04-18 10:58 53.36714 -2.28639 255 ft 4 kts 211°
2026-04-18 10:58 53.36726 -2.28623 255 ft 1 kts 224°
2026-04-18 10:58 53.36709 -2.28652 255 ft 4 kts 224°
2026-04-18 10:58 53.36689 -2.28684 255 ft 4 kts 224°
2026-04-18 10:59 53.36670 -2.28716 255 ft 4 kts 224°
2026-04-18 10:59 53.36651 -2.28747 255 ft 3 kts 224°
2026-04-18 10:59 53.36648 -2.28751 255 ft 0 kts 224°
2026-04-18 11:01 53.36643 -2.28760 255 ft 5 kts 224°
2026-04-18 11:02 53.36541 -2.28695 255 ft 11 kts 135°
2026-04-18 11:02 53.36486 -2.28602 255 ft 12 kts 135°
2026-04-18 11:02 53.36433 -2.28501 255 ft 13 kts 124°
2026-04-18 11:02 53.36370 -2.28348 255 ft 16 kts 124°
2026-04-18 11:03 53.36301 -2.28212 255 ft 14 kts 134°
2026-04-18 11:03 53.36233 -2.28098 255 ft 15 kts 135°
2026-04-18 11:03 53.36155 -2.27974 255 ft 15 kts 140°
2026-04-18 11:03 53.36079 -2.27873 255 ft 13 kts 142°
2026-04-18 11:04 53.36005 -2.27778 255 ft 15 kts 143°
2026-04-18 11:04 53.35913 -2.27730 255 ft 14 kts 179°
2026-04-18 11:04 53.35814 -2.27709 252 ft 16 kts 157°
2026-04-18 11:04 53.35707 -2.27625 247 ft 18 kts 154°
2026-04-18 11:05 53.35608 -2.27506 245 ft 18 kts 142°
2026-04-18 11:05 53.35520 -2.27388 248 ft 14 kts 141°
2026-04-18 11:05 53.35440 -2.27279 247 ft 15 kts 141°
2026-04-18 11:05 53.35350 -2.27196 245 ft 16 kts 173°
2026-04-18 11:06 53.35205 -2.27231 236 ft 24 kts 191°
2026-04-18 11:06 53.35086 -2.27270 229 ft 13 kts 190°
2026-04-18 11:06 53.35031 -2.27293 228 ft 7 kts 207°
2026-04-18 11:06 53.34926 -2.27492 224 ft 52 kts 231°
2026-04-18 11:07 53.34556 -2.28256 229 ft 113 kts 231°
2026-04-18 11:07 53.33952 -2.29503 262 ft 158 kts 233°
2026-04-18 11:07 53.33271 -2.30928 968 ft 156 kts 237°
2026-04-18 11:07 53.32607 -2.32387 1636 ft 163 kts 237°
2026-04-18 11:08 53.31945 -2.34083 2013 ft 185 kts 249°
2026-04-18 11:08 53.31634 -2.36293 2419 ft 208 kts 270°
2026-04-18 11:08 53.31882 -2.38769 2930 ft 230 kts 284°
2026-04-18 11:08 53.32279 -2.41421 3727 ft 238 kts 279°
2026-04-18 11:09 53.32340 -2.44197 4661 ft 241 kts 264°
2026-04-18 11:09 53.31944 -2.46950 5581 ft 246 kts 255°
2026-04-18 11:09 53.31437 -2.49702 6498 ft 250 kts 255°
2026-04-18 11:09 53.30919 -2.52498 7344 ft 253 kts 255°
2026-04-18 11:10 53.30395 -2.55333 8186 ft 257 kts 255°
2026-04-18 11:10 53.29866 -2.58210 9005 ft 262 kts 256°
2026-04-18 11:10 53.29329 -2.61134 9842 ft 265 kts 256°
2026-04-18 11:10 53.28782 -2.64111 10564 ft 272 kts 256°
2026-04-18 11:11 53.28205 -2.67267 10823 ft 296 kts 255°
2026-04-18 11:11 53.27588 -2.70637 11277 ft 309 kts 255°
2026-04-18 11:11 53.26948 -2.74092 11993 ft 313 kts 255°
2026-04-18 11:11 53.26388 -2.77618 12721 ft 316 kts 263°
2026-04-18 11:12 53.26331 -2.81290 13451 ft 318 kts 277°
2026-04-18 11:12 53.26856 -2.84885 14155 ft 321 kts 291°
2026-04-18 11:12 53.27937 -2.88174 14782 ft 327 kts 304°
2026-04-18 11:12 53.29315 -2.91217 15425 ft 329 kts 305°
2026-04-18 11:13 53.30231 -2.93247 15870 ft 331 kts 305°
2026-04-18 11:13 53.31615 -2.96342 16513 ft 334 kts 304°
2026-04-18 11:13 53.33005 -2.99476 17170 ft 336 kts 304°
2026-04-18 11:13 53.34403 -3.02633 17822 ft 339 kts 304°
2026-04-18 11:14 53.36267 -3.06859 18646 ft 343 kts 303°
2026-04-18 11:14 53.37228 -3.09032 19011 ft 344 kts 303°
2026-04-18 11:14 53.38663 -3.12270 19512 ft 348 kts 304°
2026-04-18 11:14 53.40285 -3.15325 20041 ft 354 kts 311°
2026-04-18 11:15 53.42023 -3.18260 20601 ft 355 kts 310°
2026-04-18 11:15 53.43741 -3.21175 21132 ft 357 kts 310°
2026-04-18 11:15 53.45487 -3.24148 21677 ft 359 kts 310°
2026-04-18 11:15 53.47241 -3.27145 22214 ft 361 kts 310°
2026-04-18 11:16 53.49000 -3.30158 22755 ft 362 kts 310°
2026-04-18 11:16 53.50770 -3.33191 23274 ft 364 kts 310°
2026-04-18 11:16 53.52551 -3.36241 23773 ft 366 kts 309°
2026-04-18 11:16 53.54339 -3.39310 24123 ft 369 kts 309°
2026-04-18 11:17 53.56127 -3.42375 24206 ft 363 kts 309°
2026-04-18 11:17 53.57837 -3.45392 24225 ft 351 kts 304°
2026-04-18 11:17 53.59271 -3.48664 24227 ft 346 kts 301°
2026-04-18 11:17 53.60660 -3.51965 24229 ft 345 kts 301°
2026-04-18 11:18 53.62047 -3.55268 24232 ft 345 kts 301°
2026-04-18 11:18 53.63431 -3.58568 24232 ft 345 kts 301°
2026-04-18 11:18 53.64816 -3.61874 24233 ft 345 kts 301°
2026-04-18 11:18 53.66201 -3.65180 24226 ft 346 kts 301°
2026-04-18 11:19 53.67589 -3.68500 24230 ft 347 kts 301°
2026-04-18 11:19 53.68981 -3.71827 24255 ft 348 kts 302°
2026-04-18 11:19 53.70375 -3.75165 24258 ft 348 kts 302°
2026-04-18 11:19 53.71770 -3.78508 24254 ft 348 kts 302°
2026-04-18 11:20 53.73164 -3.81860 24242 ft 348 kts 302°
2026-04-18 11:20 53.74557 -3.85208 24237 ft 349 kts 302°
2026-04-18 11:20 53.75933 -3.88523 24235 ft 349 kts 301°
2026-04-18 11:20 53.77322 -3.91882 24232 ft 349 kts 301°
2026-04-18 11:21 53.78713 -3.95246 24232 ft 349 kts 301°
2026-04-18 11:21 53.80105 -3.98607 24231 ft 349 kts 302°
2026-04-18 11:21 53.81498 -4.01971 24231 ft 349 kts 301°
2026-04-18 11:21 53.82887 -4.05343 24229 ft 349 kts 301°
2026-04-18 11:22 53.84272 -4.08713 24233 ft 349 kts 301°
2026-04-18 11:22 53.85659 -4.12088 24232 ft 349 kts 302°
2026-04-18 11:22 53.87276 -4.15193 24230 ft 354 kts 314°
2026-04-18 11:22 53.89264 -4.17701 24223 ft 359 kts 325°
2026-04-18 11:23 53.91545 -4.19499 24221 ft 364 kts 334°
2026-04-18 11:23 53.93911 -4.21041 24241 ft 364 kts 335°
2026-04-18 11:23 53.96249 -4.22573 24238 ft 364 kts 334°
2026-04-18 11:23 53.98611 -4.24128 24229 ft 364 kts 334°
2026-04-18 11:24 54.00972 -4.25690 24231 ft 364 kts 334°
2026-04-18 11:24 54.03331 -4.27260 24228 ft 364 kts 334°
2026-04-18 11:24 54.05694 -4.28834 24226 ft 364 kts 334°
2026-04-18 11:24 54.08056 -4.30408 24222 ft 364 kts 334°
2026-04-18 11:25 54.10439 -4.32000 24083 ft 374 kts 334°
2026-04-18 11:25 54.12874 -4.33697 23323 ft 377 kts 330°
2026-04-18 11:25 54.15079 -4.35990 22854 ft 366 kts 319°
2026-04-18 11:25 54.16917 -4.38893 22411 ft 356 kts 308°
2026-04-18 11:26 54.18395 -4.42236 21946 ft 350 kts 303°
2026-04-18 11:26 54.19788 -4.45618 21503 ft 346 kts 303°
2026-04-18 11:26 54.21166 -4.48965 21056 ft 343 kts 303°
2026-04-18 11:26 54.22526 -4.52284 20607 ft 339 kts 303°
2026-04-18 11:27 54.23873 -4.55576 20158 ft 337 kts 303°
2026-04-18 11:27 54.25191 -4.58804 19712 ft 335 kts 303°
2026-04-18 11:27 54.26521 -4.62063 19266 ft 333 kts 303°
2026-04-18 11:27 54.27844 -4.65305 18824 ft 332 kts 303°
2026-04-18 11:28 54.29162 -4.68546 18384 ft 331 kts 303°
2026-04-18 11:28 54.30474 -4.71777 17919 ft 328 kts 303°
2026-04-18 11:28 54.31772 -4.74980 17489 ft 325 kts 303°
2026-04-18 11:28 54.33058 -4.78156 17066 ft 322 kts 303°
2026-04-18 11:29 54.34311 -4.81258 16660 ft 320 kts 302°
2026-04-18 11:29 54.35573 -4.84381 16234 ft 318 kts 302°
2026-04-18 11:29 54.36825 -4.87484 15824 ft 316 kts 302°
2026-04-18 11:29 54.38070 -4.90572 15411 ft 314 kts 302°
2026-04-18 11:30 54.39310 -4.93648 15024 ft 312 kts 302°
2026-04-18 11:30 54.40541 -4.96710 14623 ft 311 kts 302°
2026-04-18 11:30 54.41770 -4.99766 14210 ft 311 kts 302°
2026-04-18 11:30 54.42995 -5.02821 13775 ft 310 kts 302°
2026-04-18 11:31 54.44212 -5.05860 13347 ft 308 kts 302°
2026-04-18 11:31 54.45427 -5.08876 12920 ft 306 kts 302°
2026-04-18 11:31 54.46637 -5.11865 12500 ft 304 kts 302°
2026-04-18 11:31 54.47842 -5.14835 12101 ft 302 kts 303°
2026-04-18 11:32 54.49039 -5.17788 11681 ft 300 kts 303°
2026-04-18 11:32 54.50237 -5.20718 11263 ft 299 kts 306°
2026-04-18 11:32 54.51679 -5.23281 10845 ft 300 kts 318°
2026-04-18 11:32 54.53316 -5.25495 10452 ft 298 kts 319°
2026-04-18 11:33 54.54918 -5.27651 10315 ft 287 kts 319°
2026-04-18 11:33 54.56459 -5.29731 10187 ft 276 kts 319°
2026-04-18 11:33 54.57947 -5.31746 9970 ft 269 kts 319°
2026-04-18 11:33 54.59408 -5.33734 9615 ft 266 kts 319°
2026-04-18 11:34 54.60855 -5.35708 9252 ft 264 kts 319°
2026-04-18 11:34 54.62292 -5.37674 8867 ft 262 kts 319°
2026-04-18 11:34 54.63718 -5.39625 8500 ft 260 kts 319°
2026-04-18 11:34 54.65131 -5.41557 8150 ft 257 kts 319°
2026-04-18 11:35 54.66507 -5.43442 7789 ft 255 kts 319°
2026-04-18 11:35 54.67890 -5.45340 7392 ft 252 kts 319°
2026-04-18 11:35 54.69235 -5.47180 7017 ft 241 kts 319°
2026-04-18 11:35 54.70526 -5.48946 6641 ft 231 kts 319°
2026-04-18 11:36 54.71761 -5.50640 6241 ft 222 kts 319°
2026-04-18 11:36 54.72948 -5.52276 5917 ft 216 kts 319°
2026-04-18 11:36 54.74122 -5.53893 5596 ft 215 kts 319°
2026-04-18 11:36 54.75288 -5.55499 5292 ft 212 kts 319°
2026-04-18 11:37 54.76441 -5.57088 4982 ft 212 kts 319°
2026-04-18 11:37 54.77569 -5.58720 4665 ft 210 kts 311°
2026-04-18 11:37 54.78347 -5.60840 4298 ft 211 kts 291°
2026-04-18 11:37 54.78623 -5.63302 4091 ft 207 kts 272°
2026-04-18 11:38 54.78386 -5.65736 3928 ft 206 kts 253°
2026-04-18 11:38 54.77676 -5.67889 3707 ft 209 kts 235°
2026-04-18 11:38 54.76577 -5.69511 3454 ft 212 kts 222°
2026-04-18 11:38 54.75379 -5.70946 3189 ft 209 kts 220°
2026-04-18 11:39 54.74184 -5.72385 2889 ft 209 kts 221°
2026-04-18 11:39 54.73014 -5.73791 2599 ft 200 kts 221°
2026-04-18 11:39 54.71893 -5.75140 2336 ft 192 kts 221°
2026-04-18 11:39 54.70833 -5.76415 2094 ft 180 kts 222°
2026-04-18 11:40 54.69833 -5.77618 1832 ft 170 kts 221°
2026-04-18 11:40 54.68891 -5.78749 1594 ft 160 kts 223°
2026-04-18 11:40 54.68008 -5.79810 1391 ft 148 kts 221°
2026-04-18 11:40 54.67192 -5.80790 1180 ft 138 kts 224°
2026-04-18 11:41 54.66412 -5.81728 989 ft 136 kts 225°
2026-04-18 11:41 54.65635 -5.82663 788 ft 137 kts 221°
2026-04-18 11:41 54.64851 -5.83606 576 ft 137 kts 220°
2026-04-18 11:41 54.64058 -5.84553 400 ft 139 kts 218°
2026-04-18 11:42 54.63261 -5.85507 228 ft 140 kts 219°
2026-04-18 11:42 54.62465 -5.86464 51 ft 139 kts 219°
2026-04-18 11:42 54.61743 -5.87333 19 ft 99 kts 214°
2026-04-18 11:42 54.61414 -5.87722 13 ft 29 kts 215°
2026-04-18 11:43 54.61322 -5.87803 14 ft 9 kts 163°
2026-04-18 11:43 54.61287 -5.87734 15 ft 7 kts 125°
2026-04-18 11:43 54.61264 -5.87676 16 ft 7 kts 120°
2026-04-18 11:43 54.61273 -5.87584 18 ft 7 kts 51°
2026-04-18 11:44 54.61305 -5.87539 19 ft 6 kts 36°
2026-04-18 11:44 54.61354 -5.87480 21 ft 11 kts 36°
2026-04-18 11:44 54.61407 -5.87392 21 ft 10 kts 53°
2026-04-18 11:44 54.61454 -5.87316 21 ft 9 kts 36°
2026-04-18 11:45 54.61502 -5.87258 21 ft 8 kts 35°
2026-04-18 11:45 54.61540 -5.87208 21 ft 5 kts 53°
2026-04-18 11:45 54.61528 -5.87170 21 ft 4 kts 139°
2026-04-18 11:45 54.61509 -5.87152 21 ft 2 kts 155°
2026-04-18 11:46 54.61501 -5.87146 23 ft 1 kts 155°
2026-04-18 11:46 54.61499 -5.87145 21 ft 0 kts 155°